Location: ?
(35.4064°N, 139.3593°E)
Time: 12:27:40
(UTC+00:00)

ALOS - Pass Details

Date: 18 April 2024
Orbit: 674 x 675 km, 98.0° (Epoch: 18 May)

Event Time Altitude Azimuth Distance (km) Brightness Sun altitude
Rises 18:49:11 0° 347° (NNW) 3,034 5.8 -15.3°
Reaches altitude 10° 18:52:54 10° 316° (NW) 2,113 4.6 -14.7°
Maximum altitude 18:54:30 12° 296° (WNW) 1,994 4.3 -14.4°
Enters shadow 18:54:53 12° 291° (WNW) 2,001 4.3 -14.3°
